Location: Newark
(47.3150°N, 5.1150°E)
Time: 01:26:54
(UTC+00:00)

ISS - Visible Passes

Search period start: 22 October 2019 00:00
Search period end: 01 November 2019 00:00
Orbit: 411 x 421 km, 51.6° (Epoch: 21 October)

Date Brightness Start Highest point End Pass type
(mag) Time Alt. Az. Time Alt. Az. Time Alt. Az.
23 Oct -0.9 05:36:51 10° S 05:39:18 19° SE 05:41:44 10° E visible
24 Oct -0.6 04:49:36 10° SSE 04:50:55 12° SE 04:52:14 10° ESE visible
25 Oct -2.5 05:35:22 10° SW 05:38:34 42° SE 05:41:47 10° ENE visible
26 Oct -1.8 04:47:11 10° SSW 04:50:04 27° SE 04:52:59 10° E visible
27 Oct -1.3 04:00:46 16° SSE 04:01:37 18° SE 04:03:57 10° E visible
27 Oct -3.7 05:34:36 10° WSW 05:37:59 89° SE 05:41:21 10° ENE visible
28 Oct -3.4 04:47:33 24° SW 04:49:22 60° SSE 04:52:42 10° ENE visible
29 Oct -2.4 04:01:15 37° ESE 04:01:15 37° ESE 04:03:58 10° ENE visible
29 Oct -3.5 05:34:10 10° W 05:37:29 53° NNW 05:40:48 10° ENE visible
30 Oct -0.3 03:14:50 12° E 03:14:50 12° E 03:15:06 10° E visible
30 Oct -3.8 04:47:43 40° W 04:48:47 70° NNW 04:52:09 10° ENE visible
31 Oct -2.4 04:01:13 39° ENE 04:01:13 39° ENE 04:03:29 10° ENE visible
31 Oct -3.0 05:34:07 12° WNW 05:37:03 39° N 05:40:15 10° ENE visible
